Gadsden, AL

3:21 PM CST on December 15, 2019 (GMT -0600)
Gadsden Municipal

Weather History for KGAD - June, 2019

Change the Weather History Date:

Monday, June 3, 2019

  Actual Average Record
Temperature  
Mean Temperature 76 °F -  
Max Temperature 90 °F 80 °F 96 °F (1936)
Min Temperature 62 °F 60 °F 50 °F (1931)
Cooling Degree Days 10    
Growing Degree Days 26 (Base 50)    
Moisture  
Dew Point 63 °F    
Average Humidity 65    
Maximum Humidity 100    
Minimum Humidity 32    
Precipitation  
Precipitation 0.00 in - - ()
Sea Level Pressure  
Sea Level Pressure 30.00 in    
Wind  
Wind Speed 2 mph ()    
Max Wind Speed 14 mph    
Max Gust Speed -    
Visibility 9.7 miles    
Events      
Averages and records for this station are not official NWS values.
T = Trace of Precipitation, MM = Missing Value Source: Averaged Metar Reports

Daily Weather History Graph

Daily Weather History Graph

Search for Another Location

Airport or City:

Astronomy

Jun. 03, 2019 Rise Set
Actual Time 5:33 AM CDT 7:51 PM CDT
Civil Twilight 5:05 AM CDT 8:20 PM CDT
Nautical Twilight 4:29 AM CDT 8:55 PM CDT
Astronomical Twilight 3:51 AM CDT 9:34 PM CDT
Moon 5:51 AM CDT (6/3) 8:17 PM CDT (6/3)
Length of Visible Light 15h 15m
Length of Day
14h 17m
New Moon, 0% of the Moon is Illuminated
Jun 3
New Moon
Jun 10
First Quarter
Jun 17
Full
Jun 25
Last Quarter
Jul 2
New

Hourly Weather History & Observations

Time (CDT) Temp. Heat Index Dew Point Humidity Pressure Visibility Wind Dir Wind Speed Gust Speed Precip Events Conditions
12:56 AM 66.0 °F - 66.0 °F 100% 29.92 in 10.0 mi Calm Calm - N/A   Clear
1:56 AM 64.9 °F - - N/A% 29.93 in 9.0 mi Calm Calm - N/A   Clear
2:05 AM 64.4 °F - - N/A% 29.93 in 2.5 mi Calm Calm - N/A   Clear
2:13 AM 64.4 °F - - N/A% 29.93 in 10.0 mi Calm Calm - N/A   Clear
2:56 AM 64.0 °F - - N/A% 29.93 in 10.0 mi Calm Calm - N/A   Clear
3:56 AM 63.0 °F - 63.0 °F 100% 29.95 in 10.0 mi Calm Calm - N/A   Clear
4:56 AM 62.1 °F - - N/A% 29.96 in 10.0 mi Calm Calm - N/A   Clear
5:56 AM 63.0 °F - - N/A% 29.99 in 10.0 mi Calm Calm - N/A   Clear
6:56 AM 66.9 °F - 66.9 °F 100% 30.02 in 10.0 mi Calm Calm - N/A   Clear
7:56 AM 73.0 °F - 71.1 °F 93% 30.03 in 10.0 mi NNW 3.5 mph - N/A   Clear
8:56 AM 79.0 °F - 69.1 °F 72% 30.04 in 10.0 mi North 5.8 mph - N/A   Clear
9:56 AM 82.0 °F 84.5 °F 66.9 °F 60% 30.04 in 10.0 mi East 3.5 mph - N/A   Clear
10:56 AM 84.9 °F 85.9 °F 63.0 °F 48% 30.04 in 10.0 mi Variable 3.5 mph - N/A   Partly Cloudy
11:56 AM 86.0 °F 86.8 °F 63.0 °F 46% 30.04 in 10.0 mi NNE 5.8 mph - N/A   Partly Cloudy
12:56 PM 88.0 °F 87.9 °F 61.0 °F 40% 30.03 in 10.0 mi North 6.9 mph - N/A   Scattered Clouds
1:56 PM 89.1 °F 88.8 °F 60.1 °F 38% 30.01 in 10.0 mi North 13.8 mph - N/A   Clear
2:56 PM 87.1 °F 85.1 °F 54.0 °F 32% 30.02 in 10.0 mi North 9.2 mph - N/A   Clear
3:56 PM 89.1 °F 88.8 °F 60.1 °F 38% 30.00 in 10.0 mi North 6.9 mph - N/A   Clear
4:56 PM 89.1 °F 89.0 °F 61.0 °F 39% 29.99 in 10.0 mi Variable 6.9 mph - N/A   Partly Cloudy
5:56 PM 87.1 °F 86.5 °F 59.0 °F 39% 29.99 in 10.0 mi NE 10.4 mph - N/A   Clear
6:56 PM 82.9 °F 83.7 °F 62.1 °F 49% 30.00 in 10.0 mi North 4.6 mph - N/A   Clear
7:56 PM 77.0 °F - 63.0 °F 62% 30.01 in 10.0 mi North 5.8 mph - N/A   Clear
8:56 PM 73.9 °F - 62.1 °F 66% 30.03 in 10.0 mi Calm Calm - N/A   Clear
9:56 PM 68.0 °F - 64.9 °F 90% 30.06 in 10.0 mi Calm Calm - N/A   Clear
10:56 PM 66.9 °F - 66.0 °F 97% 30.06 in 10.0 mi Calm Calm - N/A   Clear
11:56 PM 66.9 °F - 64.9 °F 93% 30.06 in 10.0 mi NNW 3.5 mph - N/A   Clear